Location: Kaiser
(34.0939°N, 117.4889°W)
Time: 03:41:33
(UTC+00:00)

CZ-4B R/B - Pass Details

Date: 29 October 2020
Orbit: 495 x 647 km, 97.8° (Epoch: 26 November)

Event Time Altitude Azimuth Distance (km) Brightness Sun altitude
Rises 12:56:19 0° 4° (N) 2,822 7.4 -15.3°
Reaches altitude 10° 12:58:35 10° 359° (N) 1,891 6.5 -14.8°
Maximum altitude 13:02:29 45° 286° (WNW) 767 4.1 -14.0°
Drops below altitude 10° 13:06:11 10° 213° (SSW) 1,793 6.2 -13.2°
Sets 13:08:18 0° 207° (SSW) 2,656 7.1 -12.8°
